This is the latest recevied weather packets stored in our database for station/object N4DBJ. If no packets are shown the sender has not sent any weather packets the latest 1 day(s).
| Time | Temp. | Humidity | Pressure | Rain* | Wind** | Luminosity | Snow |
|---|---|---|---|---|---|---|---|
| 1777980039 | 12.22° C | 97% | 1008.2 hPa | 0 mm | 0 m/s | 16 W/m² | - |
| 1777979732 | 11.67° C | 97% | 1008.2 hPa | 0 mm | 0.45 m/s, 174° | 15 W/m² | - |
| 1777979429 | 11.67° C | 97% | 1008.1 hPa | 0 mm | 0 m/s | 10 W/m² | - |
| 1777979125 | 11.11° C | 98% | 1008.1 hPa | 0 mm | 0 m/s | 7 W/m² | - |
| 1777978822 | 11.11° C | 97% | 1008.3 hPa | 0 mm | 0 m/s | 3 W/m² | - |
| 1777978519 | 11.11° C | 97% | 1008.3 hPa | 0 mm | 0 m/s | 2 W/m² | - |
| 1777978214 | 11.11° C | 97% | 1008.2 hPa | 0 mm | 0 m/s | 1 W/m² | - |
| 1777977912 | 11.11° C | 97% | 1008.1 hPa | 0 mm | 0 m/s | 0 W/m² | - |
| 1777977609 | 11.11° C | 97% | 1008.4 hPa | 0 mm | 0 m/s | 0 W/m² | - |
| 1777977306 | 11.11° C | 97% | 1008.4 hPa | 0 mm | 0 m/s | 0 W/m² | - |
| 1777977003 | 11.11° C | 97% | 1008 hPa | 0 mm | 0 m/s | 0 W/m² | - |
| 1777976700 | 11.11° C | 97% | 1008.1 hPa | 0 mm | 0 m/s | 0 W/m² | - |
| 1777976397 | 11.11° C | 96% | 1008.2 hPa | 0 mm | 0 m/s | 0 W/m² | - |
| 1777976090 | 10.56° C | 96% | 1008.1 hPa | 0 mm | 0 m/s | 0 W/m² | - |
| 1777975786 | 10.56° C | 95% | 1008 hPa | 0 mm | 0 m/s | 0 W/m² | - |
| 1777975484 | 10.56° C | 96% | 1007.9 hPa | 0 mm | 0 m/s | 0 W/m² | - |
| 1777975179 | 10.56° C | 95% | 1007.9 hPa | 0 mm | 0 m/s | 0 W/m² | - |
| 1777974876 | 11.11° C | 94% | 1008 hPa | 0 mm | 0 m/s | 0 W/m² | - |
| 1777974572 | 11.11° C | 94% | 1008 hPa | 0 mm | 0 m/s | 0 W/m² | - |
| 1777974269 | 11.11° C | 94% | 1008 hPa | 0 mm | 0 m/s | 0 W/m² | - |
| 1777973965 | 11.11° C | 93% | 1007.8 hPa | 0 mm | 0 m/s | 0 W/m² | - |
| 1777973662 | 11.67° C | 93% | 1008 hPa | 0 mm | 0 m/s | 0 W/m² | - |
| 1777973360 | 11.67° C | 93% | 1007.8 hPa | 0 mm | 0 m/s | 0 W/m² | - |
| 1777973058 | 11.67° C | 93% | 1007.9 hPa | 0 mm | 0 m/s | 0 W/m² | - |
| 1777972755 | 11.67° C | 93% | 1007.6 hPa | 0 mm | 0 m/s | 0 W/m² | - |
* Rain latest hour (hover to see other rain measurements)
** Current wind speed in m/s (hover to see current wind gust speed)